Location: Banska Bystrica
(48.7330°N, 19.1500°E)
Time: 15:27:57
(UTC+02:00)

ISS - Visible Passes

Search period start: 22 October 2020 00:00
Search period end: 31 October 2020 23:00
Orbit: 417 x 420 km, 51.6° (Epoch: 22 October)

Date Brightness Start Highest point End Pass type
(mag) Time Alt. Az. Time Alt. Az. Time Alt. Az.
22 Oct -0.7 06:06:11 10° SSE 06:07:48 13° SE 06:09:25 10° ESE visible
24 Oct -1.9 06:05:48 10° SSW 06:08:44 29° SE 06:11:42 10° E visible
25 Oct -1.4 04:19:30 14° S 04:21:09 19° SE 04:23:38 10° E visible
26 Oct -0.7 03:34:11 12° SE 03:34:11 12° SE 03:35:11 10° ESE visible
26 Oct -3.4 05:07:10 15° SW 05:09:51 61° SSE 05:13:11 10° ENE visible
27 Oct -2.9 04:21:43 39° S 04:22:09 42° SSE 04:25:22 10° ENE visible
28 Oct -1.0 03:36:09 19° E 03:36:09 19° E 03:37:27 10° E visible
28 Oct -3.8 05:09:07 22° W 05:11:06 74° NNW 05:14:29 10° ENE visible
29 Oct -3.8 04:23:28 80° ESE 04:23:28 80° ESE 04:26:43 10° ENE visible
30 Oct -1.0 03:37:46 20° ENE 03:37:46 20° ENE 03:38:55 10° ENE visible
30 Oct -3.4 05:10:43 24° WNW 05:12:28 53° N 05:15:47 10° ENE visible
31 Oct -3.4 04:24:58 57° NNE 04:24:58 57° NNE 04:27:59 10° ENE visible
